* Astronomy

Members Login
Username 
 
Password 
    Remember Me  
Post Info TOPIC: Asteroid 2012 BF11


L

Posts: 131433
Date:
Asteroid 2012 BF11
Permalink  
 


Orbital elements:
2012 BF11                                                Earth MOID = 0.1842 AU
Epoch 2012 Mar. 14.0 TT = JDT 2456000.5                 MPC
M  12.45907              (2000.0)            P               Q
n   0.69259179     Peri.   31.20606     -0.73165666     -0.64048007
a   1.2651766      Node   107.09453     +0.56423846     -0.76112128
e   0.0859282      Incl.   14.13229     +0.38250947     -0.10237028
P   1.42           H   21.8           G   0.15           U   9

MPEC 2012 - B24



__________________
Page 1 of 1  sorted by
 
Quick Reply

Please log in to post quick replies.



Create your own FREE Forum
Report Abuse
Powered by ActiveBoard